STARLINK-32265, 60415

Orbit data source: Space-Track

STARLINK-32265, 60415 is a payload satellite owned by SpaceX/Seattle (US) in LEO that was launched on Sat, 10 Aug 2024 UTC via an FALCON 9 launch vehicle from the Air Force Eastern Test Range (AFETR). Payloads include a variety of satellites, spacecraft, and rockets equipped with specific instruments for various scientific and technological missions. These include communications satellites like Starlink; space stations such as the ISS; scientific satellites like the Hubble; Earth observation satellites from companies like Planet Labs, Umbra, and HawkEye 360; GPS; miniature CubeSats for education and research; and military/defense satellites.

Loading next visibility...
STARLINK-32265 details
Identifier
60415, 2024-141T
Orbit
LEO
Last TLE update6 hours ago
Origin
Flag of USSpaceX/Seattle (US)
ManufacturerSpaceX/Seattle
MissionOperational spacecraft
Bus & MotorSTARLINK V2M, Unknown motor
Mass730 kg wet, ~700 kg dry
Launch date (UTC)
2024-08-10 (5 months ago)
Launch vehicle
FALCON 9
Launch site
Air Force Eastern Test Range (AFETR)
Object type
Payload
Rocket body
Debris
Shape & HBRUnknown
Radar Cross SectionLarge (>1 m²)

Expand to show TLE details & history

TLE from 6 hours ago
0 STARLINK-32265
1 60415U 24141T   25015.05139731  .00000825  00000-0  39989-4 0  9997
2 60415  53.1609  27.2324 0001357  99.1501 260.9653 15.30195218 25477
Epoch: 2025-01-15T01:14Z
Definitive object data (Epoch: 2025-01-15T01:14:00.727Z)
Latitude-0.00005°
Longitude-106.01996°
Altitude476.275 km
Speed7.629 km/s
True Right ascension01h 48m 55s
True Declination0° 00' 00"
Sunlit
Object was in daylight at TLE epoch
Visualization TLE readout
Latitude-50.62861°
Longitude-172.39264°
Altitude493.653 km
Speed7.617 km/s
Apparent Right ascension20h 34m 07s
Apparent Declination-45° 53' 00"
Sunlit
Object is in daylight
Visualization observer readout
Local Sidereal Time07:50:14
Azimuth229.761° WSW
Elevation-80.004°
Doppler factor1
Orbital elements
Apogee altitude476.416 km
Perigee altitude474.556 km
Semi-major axis6,853.623 km
Eccentricity0.0001357
Inclination53.1609°
RAAN27.2324°
Arg. of periapsis99.1501°
True anomaly260.94994°
Mean anomaly260.9653°
Eccentric anomaly260.95762°
Mean motion3.82528 °/min
BSTAR0.000039989
Orbital period94.11 mins
Loading maneuver chart data...
Loading historical data...
Loading historical data...
Loading historical data...
Loading historical data...
Loading historical data...
Loading historical data...
Loading historical data...

STARLINK-32265 Visibility forecast

Observer location: undefined°, undefined

Span
Click to sort rows by Start time (UTC) header in descending order
Start Az.
Max El. time (UTC)
Max El. Az.
Max El.
End time (UTC)
End Az.
4 mins2025-01-15 09:33:43.929Z346.913° N2025-01-15 09:34:43.929Z13.439° NNE27.621°2025-01-15 09:37:43.929Z90.268° ESE
4 mins2025-01-15 11:11:43.929Z267.714° W2025-01-15 11:12:43.929Z240.485° WSW26.826°2025-01-15 11:15:43.929Z169.893° S
4 mins2025-01-16 02:29:43.929Z165.616° S2025-01-16 02:30:43.929Z138.071° SSE25.534°2025-01-16 02:33:43.929Z73.951° E
5 mins2025-01-16 04:06:43.929Z272.927° WNW2025-01-16 04:08:43.929Z326.543° NNW29.82°2025-01-16 04:11:43.929Z32.758° NE
|